Location: Ahstedt
(52.2048°N, 10.1060°E)
Time: 20:52:31
(UTC+00:00)

NOSS 2-2 (C) - Pass Details

Date: 18 January 2026
Orbit: 379 x 1692 km, 63.3° (Epoch: 16 February)

Event Time Altitude Azimuth Distance (km) Brightness Sun altitude
Rises 06:19:14 0° 219° (SW) 2,474 6.5 -8.9°
Reaches altitude 10° 06:21:27 10° 216° (SW) 1,504 5.4 -8.6°
Maximum altitude 06:24:38 69° 133° (SE) 421 3.0 -8.1°
Drops below altitude 10° 06:27:35 10° 50° (NE) 1,407 5.8 -7.7°
Sets 06:29:36 0° 48° (NE) 2,292 6.8 -7.4°
